Location: Codford Saint Peter
(51.1597°N, 2.0531°W)
Time: 15:14:53
(UTC+00:00)

Meteor 2-13 Rocket - Pass Details

Date: 18 September 2020
Orbit: 936 x 958 km, 82.5° (Epoch: 27 October)

Event Time Altitude Azimuth Distance (km) Brightness Sun altitude
Rises 19:56:10 0° 350° (N) 3,653 8.0 -16.2°
Reaches altitude 10° 19:58:43 10° 354° (N) 2,703 7.2 -16.6°
Maximum altitude 20:04:52 65° 76° (ENE) 1,052 4.4 -17.5°
Enters shadow 20:09:01 21° 153° (SSE) 1,981 5.7 -18.1°
